Theta_e
306 309 312 315 317 320 322 323 324 324 326 326 325 324 326 327 325 325 327 327 327 327 327 327 326 326 325 326 327 329 329 328 327 327 327 327 328 328 328 327 327 326 326 326 324 321 323 321 320 318 318 316 315 315 315 314 313 312 312 311 312 311 311 311 311 311 310 309 308 305 306 305 304 304 305 306 306 307 304 304 305 305 306 306 308
302 304 307 310 315 317 319 321 320 321 323 325 325 325 325 326 326 326 326 327 327 328 328 328 329 328 327 327 327 327 328 328 328 328 327 326 327 328 328 328 327 326 325 326 326 325 322 321 320 318 317 316 316 316 315 312 312 312 312 310 310 311 310 311 311 311 307 307 306 306 305 305 306 304 304 305 305 304 304 304 304 304 304 306 307
297 302 306 309 312 315 317 319 321 322 323 324 325 325 324 325 326 326 327 327 327 328 329 328 329 329 329 326 327 321 325 329 330 329 326 326 325 326 327 328 327 326 326 325 325 326 325 323 321 319 316 316 314 314 313 312 312 312 311 311 308 306 308 309 311 311 309 304 306 305 304 303 303 302 298 299 302 303 302 302 303 302 303 304 305
296 298 300 304 308 313 315 317 319 320 321 322 324 324 325 324 325 326 326 327 327 327 326 329 329 328 324 320 322 322 320 322 324 326 328 326 325 324 324 326 327 327 326 325 325 325 324 324 323 320 318 316 315 314 313 313 312 311 310 309 309 308 306 308 309 310 311 308 306 304 301 300 303 303 296 301 301 302 301 302 301 302 302 302 301
297 297 297 298 303 308 313 316 318 319 320 321 323 324 325 325 325 326 326 327 327 326 326 327 324 321 321 317 317 318 314 320 323 325 327 326 327 324 324 324 326 327 327 326 325 325 324 324 323 321 320 317 316 315 314 314 313 312 310 309 309 311 309 305 306 308 310 312 310 303 302 299 301 303 304 309 300 300 299 301 300 300 301 301 300
297 298 298 298 301 306 309 313 315 318 319 321 322 324 324 325 325 326 326 326 327 326 326 326 324 325 322 322 320 321 321 319 321 323 325 325 326 327 325 323 324 325 327 327 325 324 324 323 321 319 318 318 316 316 316 314 313 311 311 312 311 311 312 310 307 307 308 309 310 310 311 308 306 303 306 304 305 305 305 301 301 300 300 300 300
294 294 295 296 298 302 306 310 314 316 319 320 321 322 323 324 325 325 326 326 327 326 325 324 325 325 324 324 324 324 323 323 323 321 326 327 328 327 327 325 324 324 324 326 326 324 324 323 322 320 319 317 316 316 315 314 314 313 312 311 312 311 309 309 309 311 306 306 307 308 308 307 306 305 304 303 301 303 303 303 304 300 300 300 300
296 296 296 298 299 301 304 308 312 315 318 318 320 321 321 322 323 324 325 324 326 326 325 325 325 324 324 323 323 323 323 323 321 318 317 321 325 326 326 326 325 323 323 324 326 325 324 323 322 320 318 317 315 316 316 315 313 313 312 313 312 312 311 310 310 310 309 308 306 307 306 306 306 304 304 302 301 299 302 307 306 305 301 301 300
294 296 296 297 298 299 302 305 309 313 314 316 318 319 321 322 321 322 323 323 323 324 324 324 324 325 324 324 322 322 322 318 312 312 316 317 322 324 325 326 325 324 323 322 323 325 322 323 322 320 319 317 315 314 315 315 314 313 312 311 311 311 311 311 310 310 309 309 306 304 304 304 304 303 302 301 300 299 301 302 304 303 302 303 302
293 295 296 297 297 298 299 300 301 306 308 309 309 311 314 315 317 319 321 322 322 323 323 324 323 322 323 322 322 320 315 311 312 314 314 314 318 319 323 324 324 324 323 323 323 323 323 322 322 321 320 319 313 316 315 314 314 313 313 311 312 311 311 310 310 310 310 309 308 308 304 302 301 300 300 299 299 300 298 299 301 302 302 305 307
295 294 294 295 295 296 295 299 300 299 299 300 304 307 309 312 314 317 320 320 320 322 322 323 323 322 323 322 321 319 314 314 312 312 313 310 316 316 320 322 323 324 323 323 323 323 322 320 321 321 320 315 313 313 313 314 313 313 312 311 311 311 310 309 308 309 309 308 307 307 307 307 306 304 304 300 300 298 298 301 303 303 302 303 305
296 296 297 296 298 297 296 297 298 298 297 299 301 301 305 309 311 314 314 316 317 320 321 322 323 322 322 321 320 319 316 316 315 315 314 314 314 315 315 319 320 321 322 322 322 322 320 320 318 319 317 317 316 316 315 314 314 313 313 312 311 310 310 309 308 308 307 307 307 307 307 307 306 306 307 307 304 304 304 303 302 304 304 304 306
295 295 294 295 297 297 297 296 297 297 299 299 300 300 301 305 308 311 313 312 314 315 318 320 320 320 320 319 317 316 316 316 316 316 313 315 313 311 311 316 316 318 319 320 321 321 320 319 319 320 320 318 317 317 316 316 315 313 312 310 309 309 309 308 308 308 307 307 307 308 308 307 306 306 306 306 306 305 304 301 303 304 301 302 304
293 293 292 293 294 294 294 294 294 295 296 296 297 297 298 302 303 308 310 308 309 311 315 316 317 316 315 316 316 315 315 315 315 316 313 313 312 312 313 315 316 318 317 319 321 321 320 320 320 319 319 319 318 318 316 315 314 313 312 311 310 311 309 308 308 307 306 305 306 306 306 307 307 307 307 305 305 304 302 301 301 301 301 301 303
291 292 293 295 296 295 296 295 294 294 296 297 296 297 296 298 300 304 306 304 306 310 309 312 313 310 310 312 314 314 315 314 314 313 312 310 308 309 307 308 314 315 317 318 317 317 316 317 317 318 317 316 315 315 314 313 313 312 311 311 309 307 307 307 307 307 307 306 304 305 305 304 304 306 305 305 305 304 303 302 301 298 299 299 297
293 293 294 295 295 295 295 295 295 295 296 295 297 297 298 298 298 300 305 303 304 305 306 310 309 308 308 310 311 311 310 311 307 305 307 310 309 310 308 309 311 313 314 314 314 316 316 316 315 316 316 315 314 312 312 311 311 310 309 309 310 308 309 307 306 305 304 304 303 304 303 303 304 305 305 306 306 306 305 304 302 300 297 294 297
293 295 295 295 296 296 296 296 296 296 296 297 299 299 300 299 299 299 300 300 302 304 306 306 306 307 305 308 307 308 310 310 310 309 309 309 310 310 312 312 313 315 315 315 314 313 313 313 312 310 310 311 311 310 310 309 309 308 307 307 307 305 305 305 305 304 305 305 305 304 304 305 304 305 304 304 304 304 305 305 304 302 301 297 295
294 295 296 296 297 297 297 297 297 298 298 297 299 298 300 300 300 301 300 303 300 303 304 305 306 306 305 306 306 308 310 310 311 311 311 311 310 310 310 312 313 313 311 309 309 309 308 306 308 306 305 305 304 302 302 302 303 304 304 304 303 304 303 299 300 300 302 300 299 298 299 297 299 300 302 302 301 303 301 302 303 303 302 298 297
294 297 297 297 297 297 296 297 298 298 298 299 299 300 300 299 300 302 302 303 303 303 303 303 306 308 308 308 309 310 310 311 311 312 313 313 311 310 310 309 309 308 308 307 306 304 303 301 303 301 301 301 301 299 299 297 297 299 298 298 298 299 298 297 296 296 298 299 299 299 299 299 300 300 301 301 301 301 302 302 302 302 301 300 298
295 295 295 296 296 296 296 297 298 299 299 299 298 299 300 299 300 300 300 301 303 304 305 307 306 309 308 309 310 311 310 312 312 314 314 314 311 309 308 307 305 305 304 303 302 301 300 298 297 297 295 293 293 292 293 292 292 291 291 292 291 293 294 294 293 293 297 296 296 297 297 297 297 297 299 298 299 299 300 301 301 301 301 301 300
293 293 294 294 295 296 297 297 297 296 296 297 298 300 298 299 300 301 304 303 304 303 306 307 308 308 309 310 310 311 311 311 310 309 309 309 307 306 305 304 303 301 300 299 298 297 296 295 294 293 292 291 292 290 288 288 289 288 288 289 289 290 290 289 289 290 289 290 292 294 296 296 296 297 297 297 298 298 297 298 298 298 298 298 298
294 293 293 293 293 293 293 293 293 295 295 296 296 299 298 299 300 301 303 304 305 304 306 307 308 310 310 311 310 309 308 307 306 305 304 304 304 303 301 299 298 295 297 297 295 294 292 292 292 292 290 291 291 293 288 289 289 289 288 291 289 288 288 288 287 289 288 288 289 292 292 292 292 293 293 293 294 294 294 294 294 294 295 295 296
296 296 295 294 293 292 292 292 293 293 293 292 294 297 298 299 300 299 303 301 304 303 304 305 307 309 307 306 305 303 303 302 301 300 299 298 297 296 297 298 295 293 292 292 291 291 291 292 291 290 290 289 289 288 287 290 289 289 289 289 287 288 288 288 288 287 288 287 289 289 290 290 291 291 291 290 289 289 291 292 293 293 293 294 293
294 293 293 291 290 289 291 292 294 293 292 293 293 295 298 298 299 300 301 302 303 304 304 304 303 302 302 300 300 299 299 299 298 297 296 295 295 294 294 294 292 292 291 289 291 291 291 290 290 289 289 289 289 288 288 287 288 287 287 287 287 287 286 287 287 288 288 287 288 288 289 288 288 290 290 289 288 288 290 291 290 291 292 292 292
293 292 291 290 289 290 292 291 291 290 290 291 292 294 297 298 299 300 300 300 301 302 302 300 299 298 298 298 297 297 297 295 295 294 293 293 292 292 291 292 291 290 290 290 289 289 290 291 291 291 290 289 287 286 288 288 287 285 285 286 286 286 286 287 287 287 287 287 287 287 288 287 288 288 288 287 288 288 288 287 288 288 289 290 291
292 291 291 293 292 290 289 290 290 289 289 290 289 290 293 295 296 297 297 297 297 298 298 297 297 296 295 295 294 295 294 293 292 292 292 291 290 290 289 289 290 290 289 288 289 288 288 289 289 288 288 287 286 285 285 284 284 284 285 285 285 285 284 285 286 286 285 285 285 286 286 286 286 286 286 287 287 287 287 287 287 287 287 288 289
293 293 292 289 288 290 291 289 290 288 288 288 289 289 289 291 291 291 294 295 294 296 296 296 295 294 293 292 292 291 292 291 290 289 289 289 289 288 289 288 288 288 289 288 288 288 287 288 287 287 288 288 287 287 287 286 286 285 285 285 285 286 286 285 285 284 284 284 284 285 285 285 285 286 286 286 287 286 286 286 286 286 287 287 287
291 292 292 293 293 290 289 288 287 288 286 286 286 288 289 289 290 289 290 292 293 294 294 293 293 292 291 290 289 289 289 288 288 289 289 288 288 288 288 287 287 288 288 288 287 287 286 286 286 286 286 286 286 286 286 286 285 285 285 285 285 285 285 284 284 284 284 284 285 285 284 285 286 286 286 286 285 285 286 285 285 285 286 286 287
292 293 293 292 292 290 289 288 287 286 287 286 287 287 288 288 288 288 289 290 290 291 291 291 290 289 287 287 287 288 288 288 288 288 288 288 287 287 287 287 286 286 286 286 286 286 286 285 285 285 285 286 286 286 286 286 286 286 285 285 285 284 284 284 284 284 284 284 284 284 285 285 285 286 287 287 287 288 286 285 285 285 285 285 286
293 293 292 291 291 289 289 288 286 287 287 287 288 288 289 289 289 288 289 288 290 289 289 289 288 287 287 287 287 288 288 287 288 287 286 286 286 286 286 285 285 285 285 285 285 285 285 285 285 284 284 285 286 286 288 290 290 286 284 284 284 284 284 284 283 282 283 284 285 284 285 285 285 285 286 287 288 289 289 287 286 286 285 285 285
293 291 291 291 290 289 288 287 288 287 288 289 289 289 289 289 288 288 288 288 289 288 288 287 287 286 286 287 287 286 286 286 285 285 285 285 285 285 285 284 284 284 284 284 284 284 284 284 284 284 283 284 285 287 290 291 292 291 285 283 283 283 283 283 282 283 283 283 283 284 284 284 285 285 285 287 288 288 288 288 289 288 288 286 285
293 292 290 290 289 289 288 288 288 288 288 289 289 289 289 288 288 288 287 287 288 287 287 286 285 285 286 285 285 285 285 284 284 284 284 284 284 284 284 284 284 283 283 283 283 283 283 283 283 283 283 283 285 289 290 291 291 291 289 284 283 283 283 283 282 282 282 282 282 282 283 283 284 284 284 284 285 286 287 287 287 287 288 288 288
293 292 291 290 290 290 289 288 288 288 289 288 288 288 288 288 287 287 287 287 286 286 285 285 284 284 284 284 284 284 283 283 283 283 283 283 283 283 283 283 283 282 282 283 282 283 282 282 282 282 282 283 283 289 290 290 289 289 288 285 283 282 282 282 282 281 281 281 281 282 282 283 283 283 283 283 283 282 284 285 286 286 286 286 286
291 292 292 291 290 288 288 288 288 287 287 287 286 287 287 286 286 286 286 285 285 285 284 284 283 283 283 283 283 283 282 282 282 282 282 282 282 282 281 282 282 282 282 282 282 282 282 282 282 282 282 283 284 288 288 288 288 288 287 285 281 281 281 281 281 281 281 281 281 280 280 281 281 281 281 281 282 282 283 284 284 284 284 285 286
293 292 291 291 289 287 287 286 287 287 286 286 286 285 285 285 285 285 285 284 284 284 283 283 282 282 282 282 282 282 281 281 281 281 281 281 281 281 281 281 281 281 282 282 281 282 282 282 282 282 282 282 284 287 287 287 288 287 286 284 281 282 281 281 281 280 280 280 280 280 279 279 280 280 280 282 283 283 284 284 283 283 284 284 284
294 293 293 290 289 288 288 287 286 286 286 286 285 285 285 284 284 284 284 283 283 282 282 282 281 281 281 281 281 281 281 280 280 280 280 280 280 280 280 280 281 281 281 281 280 281 281 281 281 281 281 280 282 286 286 286 287 286 285 281 281 280 280 280 279 279 279 279 279 279 279 279 279 279 281 284 285 284 283 282 282 282 283 283 283
295 295 294 290 288 287 286 286 285 286 285 285 285 284 284 283 283 283 282 282 282 281 281 281 280 280 280 280 281 280 280 280 280 280 280 280 280 280 280 279 280 280 280 280 280 280 280 280 280 280 280 280 280 284 285 286 286 285 282 280 279 278 278 278 279 279 278 279 279 279 279 279 279 279 282 285 285 285 283 282 282 282 282 282 282
288 287 286 286 286 285 285 286 285 285 285 284 284 284 283 283 282 281 281 280 280 280 280 279 279 279 279 279 280 280 279 279 279 279 279 279 278 278 279 278 280 280 279 279 279 279 280 280 280 280 279 279 278 281 284 285 285 285 282 279 278 278 278 278 278 279 279 278 279 280 280 279 279 280 283 285 286 284 282 282 282 282 281 280 280
287 288 286 285 286 286 285 285 285 284 283 283 283 283 282 281 280 280 280 279 279 279 279 278 278 278 278 278 278 278 278 278 278 278 278 278 278 278 277 277 278 278 278 278 279 280 280 280 279 279 279 277 276 278 283 284 284 284 282 280 279 278 278 279 278 278 279 279 278 279 280 280 281 282 285 285 286 284 283 282 282 281 280 279 280
284 285 286 285 285 285 284 284 284 283 283 282 282 282 281 280 279 279 279 278 278 278 277 277 277 277 277 277 277 276 277 277 277 277 277 277 277 277 276 277 277 278 278 279 279 279 278 278 277 276 277 277 277 277 280 283 283 283 283 280 278 278 277 278 278 278 277 277 278 277 279 281 283 284 285 285 285 286 284 283 282 280 279 279 283
284 284 285 284 285 286 285 285 284 282 282 281 281 281 279 279 278 278 278 278 277 277 276 276 276 275 275 275 274 275 275 275 276 276 276 276 275 276 276 276 277 277 278 278 277 277 277 276 277 277 276 277 277 276 277 281 282 282 282 281 278 278 279 278 277 277 277 276 276 277 278 281 283 284 285 285 285 285 285 283 282 281 282 284 284
283 284 284 284 284 283 283 282 282 281 281 281 281 280 278 278 278 278 277 276 276 275 275 274 274 274 273 273 273 272 273 274 274 275 275 274 274 275 276 276 276 276 276 276 276 276 276 276 276 276 276 275 276 277 275 279 281 281 281 281 279 278 279 278 277 277 277 276 276 277 277 280 283 284 284 284 285 284 284 282 282 283 284 284 282
282 282 283 284 283 282 282 282 281 280 280 280 280 278 277 277 277 276 275 275 274 274 274 273 273 272 272 271 271 272 273 273 273 274 274 274 274 275 275 275 274 274 274 274 275 275 275 274 274 275 274 275 275 275 278 277 279 280 281 281 281 280 281 279 277 275 276 276 277 278 279 281 283 283 283 283 283 283 282 281 283 282 282 282 281
281 283 283 282 283 282 281 279 279 279 279 279 279 277 276 276 275 274 273 273 273 272 272 272 271 271 271 271 270 271 271 272 272 273 273 273 273 273 273 273 274 274 273 273 273 273 272 272 272 272 272 273 273 274 276 278 277 279 280 280 280 280 280 279 277 276 276 277 278 278 279 282 282 282 282 282 281 281 280 281 281 281 280 280 279
282 281 280 280 281 280 279 277 277 277 276 276 276 276 275 274 273 273 272 272 271 271 271 270 270 270 270 270 270 270 271 271 271 273 273 273 272 273 272 272 272 272 272 271 271 271 270 270 271 270 271 272 272 273 274 276 277 277 279 279 279 279 279 280 276 275 277 277 279 281 281 281 281 281 280 280 279 279 279 279 279 279 277 276 276
279 279 279 279 278 278 277 276 274 274 274 273 273 275 274 273 272 272 272 271 271 270 270 270 270 270 270 270 271 270 270 270 271 273 273 274 273 273 272 271 271 270 270 271 270 270 270 270 270 270 270 270 271 272 274 275 276 276 277 278 278 278 278 278 277 276 278 279 279 279 278 279 278 278 277 276 275 275 277 277 277 275 274 274 275
279 279 278 277 277 277 276 275 274 273 273 273 272 272 272 272 271 271 271 270 270 270 270 270 270 270 270 271 271 271 271 271 271 271 271 271 271 271 271 270 270 270 269 269 270 270 271 271 271 270 270 271 272 273 274 274 275 276 276 276 276 275 276 276 275 275 276 274 274 274 275 276 276 277 277 276 275 274 273 272 272 272 272 272 273
279 278 277 277 277 277 275 274 274 272 272 271 270 269 269 270 270 270 270 270 270 270 270 270 269 270 270 270 271 271 271 271 270 270 270 269 268 269 270 269 269 269 269 268 268 270 270 271 270 270 269 270 271 272 274 274 275 275 275 275 275 274 274 274 274 274 272 272 271 272 272 271 272 272 272 271 271 271 271 271 270 270 271 271 272
277 276 276 277 277 276 275 274 273 271 270 269 267 267 268 268 269 269 269 270 270 269 269 269 269 269 269 270 270 270 270 270 268 268 266 267 268 268 268 267 267 267 268 269 269 270 270 269 269 270 270 270 272 272 273 276 276 277 275 274 273 273 274 274 274 275 271 269 268 267 268 268 268 269 269 269 269 268 269 269 269 269 269 269 270
276 276 276 276 275 275 274 273 272 270 268 267 266 267 267 268 268 268 269 269 269 269 268 268 269 269 269 269 268 268 267 268 268 268 268 266 271 271 269 268 268 274 276 276 275 270 270 267 268 270 272 271 271 273 276 276 276 276 276 276 275 276 276 274 274 273 270 264 265 265 265 266 266 266 267 267 267 267 267 267 267 268 268 268 268
275 275 274 275 274 273 273 272 270 269 268 267 266 266 266 266 267 268 269 269 269 269 269 268 268 268 268 267 267 266 265 265 265 267 267 269 270 272 276 277 276 277 278 278 278 277 276 275 271 268 273 276 275 276 276 275 275 275 275 275 274 275 275 274 273 267 263 263 263 263 264 265 265 265 265 266 266 266 265 265 265 266 267 267 267
Wind_Speed
11 10 11 13 13 12 11 10 10 10 11 11 10 11 12 13 12 13 11 10 9 9 9 10 10 8 7 10 11 9 9 8 8 7 8 8 8 8 9 8 8 7 8 9 7 6 5 5 6 5 6 5 5 6 7 7 6 5 4 3 5 4 4 3 4 1 3 5 6 6 7 5 7 7 8 7 7 7 5 5 6 6 6 6 7
1 5 7 6 8 10 9 9 9 11 11 11 13 14 12 12 14 13 10 10 11 12 11 10 11 11 11 11 9 8 9 9 10 8 8 7 8 8 8 9 9 8 7 7 10 8 6 5 5 5 5 5 6 6 5 4 4 4 3 3 3 5 4 3 3 2 2 4 6 6 5 6 8 5 7 7 6 5 6 6 6 7 7 7 7
6 8 9 10 10 10 10 10 11 14 13 13 14 13 12 11 11 11 11 12 12 12 11 12 10 9 10 7 9 5 5 7 7 7 6 7 8 8 8 9 9 8 8 7 7 9 10 8 5 5 5 5 5 5 4 5 5 6 6 6 4 1 3 2 3 5 5 1 0 3 6 8 2 2 2 4 6 7 5 6 7 5 9 7 7
10 10 12 11 10 10 9 10 11 10 11 10 11 13 11 11 11 12 12 12 12 12 12 12 11 8 5 4 5 6 6 5 5 5 7 8 9 7 8 8 9 9 9 8 7 6 7 8 6 6 6 5 6 6 5 6 5 5 5 6 3 3 2 5 4 5 5 2 4 3 2 1 11 4 2 6 6 5 4 7 5 6 6 6 5
12 10 8 7 9 11 13 13 10 12 13 13 13 13 11 14 14 14 13 13 12 12 13 10 7 5 4 3 3 3 2 4 5 7 9 9 9 9 9 7 8 8 9 9 8 8 7 6 7 8 7 7 6 6 6 7 7 7 6 5 6 7 6 3 2 3 5 5 4 1 3 1 5 6 7 9 2 2 5 6 5 5 6 5 5
11 13 13 13 13 12 10 10 11 12 12 13 12 14 12 13 13 12 10 10 11 12 13 10 10 11 9 9 9 8 9 8 12 15 12 11 12 7 6 8 8 8 7 8 8 7 7 6 5 5 6 6 6 6 6 6 5 5 8 7 7 6 6 4 3 2 5 5 6 4 4 5 5 3 4 8 2 5 5 3 4 4 6 6 5
7 6 5 5 8 8 11 12 13 13 13 10 11 12 13 12 12 12 12 11 11 11 11 10 10 10 13 14 13 13 13 12 9 5 8 7 5 7 7 7 8 8 7 7 7 7 7 7 7 7 7 7 6 6 6 6 7 7 5 5 7 6 3 5 6 5 0 4 5 7 7 5 3 3 6 4 10 4 1 1 5 4 5 5 6
9 10 10 9 10 12 14 15 13 15 13 10 10 9 12 12 11 12 11 11 11 10 11 12 12 12 12 13 12 12 13 13 8 5 4 5 7 7 6 7 7 7 7 6 7 7 7 6 7 7 7 7 6 6 7 7 5 4 5 7 6 6 6 6 6 5 5 4 4 7 7 6 5 3 4 7 9 11 13 7 5 4 4 7 6
8 9 10 11 12 12 11 11 13 11 9 10 11 11 10 10 10 9 11 9 8 10 11 12 12 12 12 11 11 10 9 6 3 4 5 5 7 6 7 6 6 7 6 6 6 7 7 7 7 6 6 6 6 6 6 6 7 7 6 6 7 7 6 6 5 6 5 7 3 4 3 6 6 5 4 3 6 7 11 7 9 3 4 6 6
6 8 8 8 8 7 7 5 4 7 6 6 5 5 6 6 8 9 11 9 8 10 11 12 12 10 11 11 12 9 5 3 4 5 5 5 7 7 7 6 6 6 6 6 6 6 7 7 7 7 7 6 6 7 7 6 5 6 8 9 7 6 5 6 7 6 5 3 3 4 4 3 2 2 3 3 5 7 12 9 8 11 12 9 6
7 7 7 7 4 5 4 9 8 5 5 5 5 6 5 7 7 10 11 8 8 10 10 12 12 10 11 11 11 9 6 6 4 4 4 4 6 6 6 5 5 6 5 6 7 6 6 7 7 7 7 7 7 5 6 8 9 9 5 3 4 6 6 5 5 4 4 4 3 3 4 5 6 4 5 3 5 5 7 11 10 7 8 12 5
6 5 5 4 2 1 2 5 5 6 5 6 6 5 6 7 7 9 7 8 8 9 9 11 10 11 9 9 9 8 8 8 8 7 7 7 6 6 4 4 4 4 5 5 5 6 6 5 5 5 5 5 7 6 4 4 4 3 4 5 4 5 3 3 3 4 3 3 3 4 5 5 5 6 7 7 7 8 8 11 10 9 9 7 7
6 6 5 4 5 5 4 4 2 4 6 6 7 6 6 6 7 9 10 7 8 7 9 9 9 10 9 8 6 6 7 8 8 7 6 7 6 5 5 6 4 5 5 5 5 6 5 5 4 6 7 5 4 5 5 5 4 4 4 4 3 2 3 3 3 5 5 5 5 4 3 4 6 4 4 5 5 6 7 11 10 6 11 11 7
4 4 4 4 4 4 4 3 3 3 2 3 4 5 5 6 6 7 8 6 6 6 7 8 9 7 6 7 7 7 7 8 7 8 7 6 6 7 7 7 7 7 6 6 6 6 5 6 6 4 3 4 5 5 4 4 3 4 3 4 5 5 3 3 3 2 2 3 2 3 3 4 4 3 4 4 5 6 7 8 11 9 8 13 10
3 3 4 4 5 5 5 5 4 4 4 4 3 3 4 5 5 6 5 5 6 7 6 7 7 6 5 6 7 6 7 7 7 7 7 6 5 6 5 4 6 5 5 5 4 4 3 3 3 4 4 4 3 3 3 3 3 2 2 1 1 3 4 3 2 1 1 2 3 3 4 3 4 4 3 3 4 5 6 7 9 14 14 9 8
3 4 4 4 4 4 4 3 4 4 4 3 3 3 4 4 4 5 6 5 5 5 5 6 6 5 5 6 7 7 6 5 4 3 4 5 6 6 5 5 4 5 3 4 3 4 4 4 4 4 4 4 4 4 3 3 3 2 2 1 0 2 1 1 1 1 1 3 3 3 3 4 4 4 4 5 6 5 5 5 6 8 11 17 13
4 4 4 4 1 1 3 3 2 2 3 4 4 4 5 5 5 4 4 3 5 5 6 5 6 5 5 5 5 5 6 7 7 6 6 4 6 5 7 6 6 6 5 4 5 3 4 4 6 5 4 5 5 5 5 4 4 3 1 1 1 1 1 2 2 2 0 0 1 2 2 3 3 3 3 4 5 5 5 6 5 7 7 11 13
4 3 2 1 1 1 0 0 2 4 4 3 4 4 3 4 4 5 4 5 4 4 5 5 6 5 5 5 4 5 6 6 6 7 6 7 5 5 6 6 5 4 5 4 5 6 6 5 5 5 5 5 5 4 4 4 4 4 3 3 2 1 1 2 2 3 4 3 3 3 3 4 4 4 4 5 5 6 6 5 5 5 6 9 10
4 4 3 1 1 1 1 1 0 1 2 2 2 2 2 3 3 5 5 4 5 4 4 4 5 5 5 6 7 6 5 6 6 7 7 8 7 6 6 5 5 5 6 6 6 6 6 5 6 6 6 6 6 6 6 6 4 5 4 4 4 4 3 3 4 4 3 3 3 3 3 3 4 5 5 5 5 5 5 5 5 4 5 6 9
4 3 3 2 1 2 3 4 3 3 2 1 2 2 3 3 4 3 4 4 5 5 5 6 5 7 6 6 5 6 6 7 6 7 7 8 7 8 7 7 6 6 6 6 6 6 5 6 5 6 6 6 6 4 5 5 6 5 4 4 4 5 6 4 3 4 4 4 5 5 5 5 5 5 4 4 5 5 6 6 6 7 7 6 8
4 3 2 2 2 2 2 1 2 2 2 3 3 4 4 4 4 5 7 5 6 5 6 6 6 7 8 7 7 6 7 7 7 7 7 7 8 8 7 6 6 6 6 6 6 6 6 6 6 6 6 5 5 5 4 5 5 5 4 4 4 5 5 3 3 5 4 4 4 4 5 5 5 6 5 6 5 5 5 5 5 6 7 5 6
4 4 4 4 3 2 2 2 2 4 3 4 3 4 4 4 4 5 6 5 6 5 6 6 6 6 7 7 7 6 7 7 8 7 7 7 7 8 7 6 7 5 5 7 6 5 5 6 6 5 5 6 6 6 4 5 5 5 5 4 4 4 5 4 4 5 4 4 4 4 4 4 4 5 5 5 5 5 5 5 4 5 7 6 4
6 6 5 5 4 3 3 3 3 3 3 3 3 4 4 4 4 4 6 4 5 5 5 5 6 7 7 6 7 7 7 7 9 7 7 7 6 6 5 8 7 6 5 5 6 6 6 6 7 7 6 5 5 5 4 5 5 6 5 5 5 5 5 4 5 4 4 5 5 5 5 5 4 5 5 6 5 5 4 5 6 5 7 7 5
4 4 3 2 3 3 4 3 3 3 3 3 3 3 4 4 4 4 5 5 5 4 6 6 6 6 6 7 7 6 8 7 9 6 7 6 6 6 6 8 6 6 7 5 5 6 7 7 7 5 5 5 6 5 6 6 6 5 5 5 4 4 4 4 3 4 5 5 5 5 6 5 5 5 6 6 5 4 5 4 5 5 6 8 6
4 4 4 4 4 4 4 3 3 3 3 3 4 4 4 4 4 5 5 4 4 5 7 6 7 6 6 7 7 7 8 8 8 6 7 7 6 7 6 7 7 7 6 7 6 6 6 6 7 7 7 6 6 5 6 6 5 4 4 4 4 4 3 3 3 4 4 4 5 5 6 5 5 5 6 5 5 6 5 5 6 6 5 6 7
4 4 4 5 4 3 4 3 3 3 4 4 4 4 4 5 5 4 5 5 5 6 7 7 7 8 7 8 6 7 8 8 8 8 8 7 7 7 7 5 6 8 7 6 7 6 6 7 7 6 6 6 6 6 6 6 5 5 5 4 4 3 3 3 4 4 3 3 4 5 5 5 5 5 6 6 6 7 7 6 7 8 7 7 8
5 5 4 4 4 5 5 4 4 4 4 4 5 4 4 5 5 4 5 6 5 7 7 8 8 8 8 7 7 6 7 7 7 7 7 7 7 6 7 7 6 7 7 7 6 8 6 7 7 7 7 7 6 6 5 5 5 4 4 4 4 4 5 5 4 3 3 3 3 4 4 4 4 5 6 7 8 8 7 7 7 8 8 8 9
3 4 6 8 7 6 6 5 5 5 4 4 3 4 5 6 6 4 5 6 6 8 8 8 9 8 8 7 7 6 7 7 7 8 8 7 7 8 7 6 6 7 7 7 7 8 6 7 7 7 6 6 6 6 6 5 4 4 4 4 5 5 4 3 3 3 3 3 3 3 3 4 4 5 6 7 6 8 7 7 6 6 8 9 9
5 7 7 8 8 6 6 5 5 5 5 4 4 4 5 5 5 5 5 6 6 8 8 8 8 9 7 7 7 6 7 7 7 8 8 8 8 7 7 7 7 7 7 7 6 7 8 8 7 7 6 6 7 6 4 4 5 5 5 5 4 2 1 1 2 2 2 2 3 3 4 4 6 9 10 9 9 8 7 9 8 5 7 9 10
10 10 8 6 7 7 7 7 6 6 6 5 5 6 6 8 7 5 6 4 7 7 8 8 8 8 7 7 7 7 7 7 7 8 7 8 8 7 8 8 7 7 7 7 7 7 7 7 8 7 6 6 6 4 7 10 8 6 4 1 0 0 1 1 2 3 3 4 5 5 5 9 10 10 10 10 12 13 13 9 9 9 9 9 10
8 6 6 7 7 7 7 8 8 8 8 8 7 7 7 7 7 7 7 5 7 8 7 8 8 6 7 8 8 7 7 8 7 7 7 8 8 7 8 8 8 7 8 6 7 8 7 6 7 7 7 6 6 6 11 10 9 6 3 2 2 3 2 2 3 4 5 6 5 5 6 7 8 9 9 13 13 14 14 14 14 14 12 11 12
10 8 7 8 10 11 12 12 10 9 9 8 8 7 8 9 8 8 8 7 8 9 9 8 7 7 8 9 8 8 9 7 7 7 7 6 7 8 8 8 8 8 6 6 9 7 7 5 6 6 7 7 6 8 9 8 8 10 7 4 3 3 3 4 4 4 4 5 6 6 6 5 6 8 9 9 10 13 15 15 16 15 15 15 16
8 10 12 12 14 15 14 11 9 10 10 7 6 8 8 9 9 8 8 9 9 9 9 9 7 7 8 9 9 9 9 8 6 6 6 7 8 8 8 8 8 6 6 8 7 7 6 5 6 7 7 6 4 8 10 11 11 12 11 5 3 3 4 4 4 4 4 5 5 6 6 5 5 10 8 7 8 9 13 15 14 14 13 15 16
7 9 12 12 7 6 8 9 9 7 6 6 5 6 6 6 9 9 10 9 10 9 9 9 8 7 7 8 10 10 9 8 7 6 7 7 8 8 6 6 6 6 7 7 6 7 6 6 5 5 6 5 5 9 12 12 12 12 11 7 3 4 4 4 4 4 4 5 5 6 6 6 6 6 8 9 9 10 10 11 10 9 9 10 14
14 12 11 12 11 7 7 8 9 9 8 8 7 6 7 7 8 10 8 10 8 9 8 8 8 6 6 7 9 9 10 8 7 7 7 8 8 7 7 5 6 6 7 7 6 7 6 5 5 4 5 6 7 12 12 12 12 12 12 6 4 4 4 4 4 4 4 4 5 5 4 5 7 7 7 12 12 12 12 10 11 11 9 9 9
14 16 15 13 14 16 14 11 8 9 8 7 9 7 8 7 6 9 10 8 9 9 8 8 8 6 6 6 9 9 9 8 7 7 8 8 7 7 7 5 6 6 5 5 5 5 6 5 5 5 6 6 6 12 12 13 13 13 12 6 6 6 5 4 4 4 4 4 4 5 5 6 6 6 11 19 17 14 12 13 14 13 11 9 8
14 13 14 11 7 7 7 8 8 8 9 9 8 8 8 8 9 8 10 9 9 9 9 8 7 6 6 6 7 10 9 9 8 8 8 8 8 7 6 4 7 6 6 6 5 5 4 6 5 5 6 6 5 10 13 13 14 15 9 6 5 5 4 4 5 4 4 4 4 5 6 7 7 6 12 19 20 21 12 13 13 14 13 12 11
4 4 6 8 9 8 7 11 11 9 8 8 8 9 9 9 9 8 10 8 8 8 7 7 7 5 5 5 5 8 10 8 8 9 9 7 5 4 5 3 7 7 7 5 5 6 5 5 6 6 6 5 5 9 14 14 15 16 11 6 5 4 4 4 4 4 5 4 5 10 9 7 8 8 16 20 22 17 12 12 13 15 16 15 14
7 10 12 11 11 12 11 10 11 12 9 8 9 10 9 9 8 9 8 9 8 8 8 8 7 5 5 5 6 7 8 9 9 7 7 8 6 6 5 4 5 5 6 5 5 6 6 6 5 6 7 7 5 7 13 14 15 14 9 5 5 4 4 6 6 5 5 5 5 5 11 12 11 14 21 20 22 17 11 11 12 14 15 16 15
6 6 9 11 11 13 11 12 13 12 10 11 10 10 10 10 9 9 10 10 10 9 8 7 7 6 5 5 5 6 7 8 10 8 6 7 5 6 6 6 5 5 7 6 5 6 7 6 5 5 5 6 6 6 8 13 13 13 13 6 4 5 6 7 7 6 6 5 5 6 8 13 18 20 21 22 21 22 13 11 11 11 14 16 14
8 9 10 11 11 12 15 15 12 12 12 12 12 12 12 10 11 11 11 10 9 8 8 7 7 6 6 6 4 6 9 6 6 8 7 6 5 6 6 6 7 6 6 6 6 6 7 6 5 5 5 5 4 4 5 12 12 12 13 10 4 5 5 6 6 6 5 6 6 6 6 11 20 22 23 22 21 21 19 11 10 10 12 17 21
5 11 11 10 9 9 9 9 9 12 12 12 12 13 12 12 11 12 11 8 8 8 8 8 8 7 6 6 6 5 5 7 6 8 9 7 5 5 6 6 6 7 8 8 6 5 6 6 5 4 3 3 4 5 4 8 11 11 12 13 7 5 7 5 5 5 6 5 7 7 7 13 21 21 20 21 22 20 21 9 12 20 24 25 17
13 10 8 13 13 12 13 13 10 11 11 11 12 13 12 11 13 11 9 9 8 8 8 8 7 7 6 6 5 6 7 6 7 6 9 9 6 7 6 6 7 7 8 8 7 6 6 5 4 3 2 2 3 4 8 6 9 11 12 12 12 8 12 6 5 6 7 7 7 8 8 17 21 20 19 20 19 21 14 13 22 21 22 24 18
4 6 11 9 10 9 10 8 8 9 9 10 13 14 12 12 11 8 8 8 8 7 7 7 7 7 7 6 5 5 5 5 7 7 7 10 8 7 6 5 6 7 8 8 5 5 5 5 4 2 2 2 2 2 5 8 7 11 11 12 12 13 13 8 6 5 7 8 8 9 12 20 18 19 19 18 17 16 14 20 20 22 22 19 11
9 9 6 5 10 12 10 8 6 7 6 6 5 11 12 11 8 8 9 10 9 9 9 8 8 7 7 6 6 6 6 5 5 7 9 9 8 7 8 4 6 6 7 8 6 5 5 5 4 3 1 1 2 1 1 5 9 9 10 11 12 13 13 14 8 5 6 8 14 19 20 18 18 17 18 16 12 15 20 20 21 23 20 11 13
6 7 8 7 8 8 10 11 6 5 6 5 5 8 15 11 10 9 9 10 11 11 10 10 8 8 7 7 8 6 5 5 5 4 5 6 8 8 8 7 6 6 6 7 7 5 5 4 4 3 1 1 1 1 1 3 4 6 6 10 12 13 13 14 12 9 15 18 18 18 19 18 15 14 10 8 8 11 18 19 20 18 10 10 11
12 10 10 10 11 12 13 12 12 8 8 6 6 5 4 9 11 9 9 9 9 10 10 9 8 7 6 6 8 8 7 6 5 5 5 5 5 6 8 7 6 7 7 6 6 6 5 5 4 3 2 2 2 1 3 2 2 3 4 6 7 7 11 10 8 8 10 9 11 12 11 15 13 16 15 13 12 13 12 11 10 10 10 10 11
6 9 9 9 11 13 14 13 12 9 7 6 6 6 7 8 8 9 9 9 9 10 11 10 9 8 7 7 7 7 8 7 6 6 7 6 5 5 7 7 7 7 8 7 6 6 6 6 5 5 4 3 2 2 2 3 3 4 4 5 6 6 6 6 7 8 8 9 8 10 11 7 8 7 7 5 6 6 9 9 9 9 9 10 13
11 10 10 12 11 12 12 12 10 7 7 7 7 7 8 10 9 9 11 12 11 9 8 9 8 7 7 6 6 7 6 7 7 5 3 4 6 6 6 5 3 3 4 6 6 6 6 4 5 5 4 4 3 2 2 4 5 7 6 5 5 5 5 6 10 14 8 7 6 7 7 9 8 9 8 8 8 9 8 8 10 10 9 10 10
6 7 8 8 9 11 12 11 9 7 7 8 8 8 8 8 8 9 10 12 12 10 9 9 8 7 7 7 6 5 5 6 7 7 7 5 4 7 4 5 4 7 9 8 6 4 6 5 6 5 3 3 2 2 5 7 8 9 10 11 10 10 12 10 13 15 8 5 6 6 7 8 8 9 9 10 10 10 10 10 10 12 11 9 9
10 10 9 10 9 8 8 9 9 8 8 9 9 9 9 8 8 9 10 11 12 11 9 8 8 7 7 7 7 7 6 5 6 7 7 8 7 6 7 7 6 9 9 10 11 12 12 9 6 4 4 9 7 7 7 7 8 9 10 10 11 11 12 13 13 8 6 5 6 7 7 8 8 8 8 9 9 10 10 11 10 10 8 10 11
Wind_Direction
219 209 205 206 205 205 205 202 205 205 208 202 193 198 197 193 189 199 196 184 177 178 183 182 187 190 195 196 204 199 202 200 206 205 203 205 199 199 195 200 202 213 202 187 199 195 200 197 197 197 192 188 187 199 200 206 207 203 216 206 227 243 257 224 250 223 309 297 286 279 291 252 251 245 241 248 243 244 254 256 260 267 257 258 255
187 217 231 222 215 209 202 201 198 200 212 204 202 199 198 194 193 197 189 192 191 187 185 190 192 194 194 201 196 192 194 199 207 206 207 202 201 201 200 195 199 205 213 207 196 199 209 196 201 200 190 196 197 202 205 203 191 204 201 227 218 223 241 214 219 120 273 249 298 310 290 273 256 252 249 252 257 257 243 240 248 247 253 253 260
219 224 217 211 209 208 201 203 204 205 204 204 206 201 197 195 198 194 193 194 197 193 187 196 197 196 194 194 191 192 213 207 208 203 199 203 205 203 200 198 194 203 201 204 208 202 204 209 207 195 195 189 194 204 196 203 201 212 203 208 236 275 245 271 206 186 242 187 212 330 312 331 338 290 311 280 257 254 240 238 247 249 251 247 251
223 216 216 212 206 207 205 207 207 203 206 208 208 205 200 198 196 196 197 197 197 198 199 201 197 192 193 161 176 169 187 196 203 201 204 207 212 203 206 199 195 197 196 199 204 205 203 198 192 198 200 193 194 196 199 212 206 215 210 219 194 250 222 254 210 207 210 152 294 221 261 76 314 324 301 270 231 239 224 239 227 243 258 266 277
219 225 229 213 208 211 207 208 201 203 207 205 203 203 202 200 198 196 195 198 199 197 199 196 176 166 166 108 123 151 64 162 200 218 208 207 208 206 205 194 201 201 196 197 198 201 198 202 194 200 201 195 194 201 201 213 211 212 202 199 195 212 244 245 292 212 230 226 200 305 327 332 233 286 343 299 179 236 249 237 240 244 258 267 264
216 214 210 205 206 212 214 211 206 211 211 209 205 206 203 203 202 198 196 198 201 200 196 186 185 184 176 184 189 197 206 192 206 207 202 200 207 197 193 197 198 201 199 197 198 199 195 196 202 199 201 194 194 203 210 211 218 208 210 204 211 217 227 227 261 259 224 232 246 233 207 254 296 267 8 301 300 210 239 223 246 231 238 253 250
237 249 250 233 227 214 214 208 209 210 215 206 207 208 207 206 203 198 197 198 200 198 189 186 190 194 195 200 203 203 208 217 219 208 203 207 192 198 202 197 201 199 201 196 195 199 200 193 200 203 202 200 200 201 209 212 216 216 195 196 215 218 198 244 233 251 161 255 242 252 272 280 269 297 264 303 301 323 36 243 265 226 235 235 239
218 221 220 218 213 205 208 210 208 211 209 202 207 207 206 206 199 201 201 200 198 191 188 190 194 198 201 207 208 210 211 219 205 201 172 171 194 204 197 201 202 204 201 198 194 194 203 204 202 201 194 198 191 203 210 218 214 210 195 205 211 208 205 218 242 227 217 254 197 235 248 262 274 265 256 243 276 288 295 290 245 259 242 248 237
218 221 220 218 214 215 217 213 215 212 203 199 203 203 205 206 205 203 205 199 197 190 189 196 200 199 202 206 212 219 219 216 158 157 174 176 194 203 202 199 200 206 204 198 199 196 196 203 198 194 190 193 189 204 217 213 202 203 208 206 211 214 204 216 225 238 213 240 208 261 239 251 253 248 259 225 245 281 280 275 297 289 277 271 260
231 226 230 232 234 237 230 240 230 219 213 211 212 202 203 193 198 199 207 200 196 193 193 198 201 198 204 208 212 214 199 177 154 171 179 178 198 201 200 196 195 199 203 201 200 203 198 197 195 193 192 191 188 199 205 205 209 215 213 211 211 213 210 207 216 232 229 241 215 235 238 280 301 276 242 245 265 234 270 287 286 291 288 278 275
218 220 224 228 236 230 221 208 216 210 210 201 207 203 198 197 198 202 207 197 195 197 193 200 200 201 208 207 209 205 187 175 170 184 181 181 205 199 194 193 187 198 190 201 200 196 202 195 191 193 191 187 188 192 202 203 212 216 211 193 201 211 220 215 227 245 240 249 265 238 245 244 254 272 290 250 241 280 292 275 274 262 265 291 249
200 193 205 205 176 158 137 195 206 210 193 201 208 200 200 203 199 206 208 199 197 198 196 202 200 205 210 204 203 197 179 183 189 192 190 195 198 190 183 180 193 189 191 195 200 196 191 188 195 196 195 195 202 203 206 211 203 183 189 196 206 213 220 207 217 231 235 248 252 234 238 237 240 243 246 250 248 261 270 288 297 304 285 256 287
182 197 200 205 195 192 187 184 168 174 193 201 204 196 199 200 201 202 212 199 198 194 198 201 201 206 204 200 194 179 181 185 191 195 192 194 183 167 168 188 175 191 196 195 202 195 187 189 193 204 211 194 176 167 193 192 191 191 193 198 195 196 206 201 208 219 218 221 235 245 261 262 263 275 295 284 284 289 289 292 289 293 293 300 283
217 211 213 212 210 220 225 214 209 216 222 201 183 182 190 192 196 200 213 194 193 192 198 198 204 200 191 188 184 174 183 182 190 193 194 188 174 176 177 179 181 189 184 195 195 190 190 207 207 191 168 172 170 175 173 172 167 180 176 180 191 203 182 188 213 224 220 238 269 285 269 268 276 284 284 300 297 299 293 292 303 298 274 284 294
258 256 234 218 213 205 206 208 216 219 216 213 204 186 161 181 179 188 196 199 186 196 188 197 197 185 180 179 177 177 177 180 188 190 177 171 176 165 167 159 166 175 183 187 165 163 165 148 143 152 145 131 126 127 138 147 167 158 163 185 171 172 169 170 231 244 284 266 258 241 255 252 243 247 253 289 290 284 286 293 299 302 305 293 289
270 256 261 254 235 223 221 215 209 209 217 216 213 192 170 184 175 184 189 188 182 174 182 180 181 170 168 169 176 173 170 165 149 146 164 167 166 157 156 156 152 146 139 130 157 139 131 130 120 104 106 110 109 111 109 105 96 111 104 108 54 34 70 170 220 163 303 336 328 321 322 297 301 291 265 259 257 260 279 296 301 306 304 307 309
262 239 239 255 263 254 233 212 197 194 196 207 210 200 194 178 168 174 178 166 167 171 166 163 155 149 160 157 154 152 154 158 159 155 145 139 136 138 136 136 127 127 134 132 115 94 98 100 84 80 76 77 68 58 66 81 102 84 83 92 346 8 81 67 76 97 138 244 331 325 321 310 306 308 316 317 305 298 280 276 271 270 287 294 302
257 249 256 262 239 232 292 280 207 189 195 201 214 203 193 178 172 165 162 165 173 150 144 145 139 132 129 126 131 146 152 149 144 138 135 118 107 105 106 105 104 105 104 102 98 87 78 80 93 78 77 78 88 79 73 55 52 47 42 47 13 66 84 57 53 23 348 347 322 332 322 302 292 316 310 303 305 294 289 285 288 285 290 286 290
243 219 210 198 156 154 150 177 255 243 215 200 191 164 153 157 165 159 165 161 154 143 126 110 119 123 126 130 131 123 121 124 129 130 124 113 109 101 96 106 94 93 96 92 91 88 87 74 83 78 68 69 63 60 62 62 70 77 46 48 23 54 76 43 24 28 351 15 1 351 352 339 338 326 317 306 290 285 282 284 277 279 275 273 289
217 209 206 185 135 148 164 156 157 170 154 119 112 108 123 124 120 105 99 108 109 114 119 114 116 117 112 105 102 110 112 115 119 120 114 109 110 108 106 89 93 90 86 86 85 90 89 87 76 83 78 73 72 63 75 81 75 74 74 62 19 51 56 49 11 18 20 18 15 3 351 343 334 324 305 304 305 295 290 285 280 275 267 262 268
217 200 177 147 132 124 124 137 118 80 75 90 117 128 124 115 115 128 124 115 109 117 114 120 118 115 115 111 108 102 94 91 88 87 95 95 94 88 82 99 88 76 91 88 88 89 90 95 90 81 85 87 84 68 62 82 82 83 71 86 61 62 64 39 36 12 9 20 12 2 344 334 333 318 314 311 306 303 306 305 311 309 300 298 297
189 175 165 167 165 143 93 67 67 85 79 90 94 105 107 108 123 120 114 120 122 119 119 117 111 109 107 107 94 83 87 86 87 82 83 82 89 99 109 87 87 68 86 94 95 96 92 91 91 93 84 75 69 66 56 72 72 63 51 49 59 59 55 38 37 14 352 356 353 337 320 310 304 296 298 295 290 290 283 287 281 282 285 284 275
175 168 179 177 163 147 128 116 114 106 94 87 86 105 117 121 116 123 121 121 112 116 107 103 100 96 91 92 94 91 90 90 91 88 88 90 93 98 109 101 94 90 71 89 101 94 94 90 80 74 78 78 81 80 65 71 65 63 52 33 33 38 38 22 14 351 343 348 354 338 316 310 309 304 295 288 285 282 284 286 291 289 289 288 280
155 158 131 109 101 92 95 101 98 91 88 84 94 101 107 114 120 114 112 104 89 95 91 85 87 93 96 87 84 89 92 95 92 93 96 91 90 87 89 93 96 89 88 76 82 91 84 86 95 92 85 78 65 61 61 58 64 67 68 47 28 34 32 33 16 353 347 354 340 332 312 312 308 300 296 295 288 286 296 299 295 291 287 288 282
141 134 121 104 105 120 133 130 125 113 100 104 105 114 111 103 100 99 92 93 97 98 100 97 99 95 92 99 100 102 104 100 103 100 99 95 91 90 83 98 97 89 88 84 71 78 87 82 79 76 70 65 64 60 59 51 51 72 79 71 49 45 35 20 14 357 349 347 329 313 303 310 309 302 298 302 310 319 313 309 299 295 289 286 286
138 124 124 145 155 136 127 134 130 133 134 121 108 105 99 94 90 108 112 103 97 99 105 105 105 102 100 99 101 100 102 104 104 98 95 93 94 91 92 83 98 95 84 81 88 73 81 82 78 77 79 75 64 63 67 72 52 43 56 57 64 58 53 24 14 360 338 315 300 298 301 304 305 309 312 317 323 325 324 319 312 306 303 297 297
158 156 146 118 131 158 162 155 151 142 139 143 141 131 122 116 99 90 108 112 116 112 111 107 104 105 100 97 97 99 104 103 101 102 99 93 92 98 96 94 89 96 96 92 83 85 70 83 79 75 72 74 71 65 63 58 56 53 55 52 37 34 23 18 359 333 306 291 282 283 295 303 311 317 323 324 324 321 321 315 310 307 306 306 302
117 137 160 172 173 169 164 160 147 151 143 137 127 126 129 126 121 114 113 115 116 112 111 111 111 105 105 104 105 107 104 104 105 103 101 101 100 93 92 93 93 89 90 90 92 91 83 79 78 80 76 77 72 63 54 55 55 56 52 39 39 26 11 347 314 296 289 286 288 292 296 309 321 321 321 317 318 314 315 311 309 305 307 308 304
172 187 187 175 175 172 165 164 169 157 154 148 132 119 112 103 112 120 119 121 126 115 113 114 110 110 111 113 109 101 101 101 101 103 102 100 96 97 94 91 89 90 86 88 88 88 90 82 74 77 75 67 66 58 59 63 56 45 40 38 32 20 326 311 312 309 301 299 307 314 324 326 325 319 315 310 306 307 313 315 315 313 309 310 308
194 194 189 183 171 169 171 169 171 169 161 158 149 147 143 138 135 129 116 120 113 109 113 111 111 116 117 112 107 104 103 102 101 101 102 102 101 98 98 94 91 91 89 87 86 82 84 89 88 77 72 68 63 59 55 56 60 69 62 66 41 105 343 341 344 337 338 346 342 341 332 328 328 326 324 323 324 324 320 315 314 323 320 316 310
204 188 184 180 179 176 173 176 179 174 172 166 166 159 148 136 134 129 123 123 115 113 110 115 117 119 119 113 108 107 106 104 107 106 106 105 104 106 102 96 91 87 88 87 89 84 81 81 86 86 79 68 59 52 49 50 51 62 89 70 59 21 19 15 13 10 0 349 343 340 334 334 335 332 333 330 328 325 321 320 319 318 317 315 315
199 189 179 185 191 186 183 183 179 178 175 171 166 161 150 144 139 133 130 125 118 119 121 120 122 124 121 117 115 114 109 109 108 107 108 108 107 102 96 95 95 90 87 90 81 83 83 83 87 84 76 66 58 51 57 56 55 59 63 54 43 32 23 17 13 9 356 348 342 341 335 333 333 331 329 327 324 324 324 322 320 318 315 313 310
185 186 193 196 196 193 185 176 173 177 174 170 156 153 157 150 138 136 127 125 125 126 126 125 130 129 130 124 123 119 115 114 114 116 115 108 103 96 96 96 92 98 95 83 87 87 84 82 85 86 81 71 66 55 60 55 54 53 52 54 42 36 33 22 11 8 358 351 343 337 337 334 331 333 330 323 321 319 318 312 305 304 303 302 304
197 201 201 202 202 209 190 175 167 159 153 147 149 147 145 141 133 130 128 128 128 127 128 130 128 132 134 129 126 123 121 123 124 118 113 107 101 98 99 96 101 94 92 93 89 87 86 81 82 91 93 83 65 51 52 50 50 49 46 46 34 34 32 21 16 5 359 353 344 338 336 335 334 334 326 322 319 314 314 314 314 309 303 290 290
194 199 202 200 193 187 174 163 164 158 150 139 133 137 139 135 137 127 125 126 127 127 127 129 127 130 132 129 125 124 123 124 120 115 108 103 102 103 96 96 99 99 98 95 92 90 84 86 83 89 89 69 51 46 48 46 48 49 44 48 35 34 29 24 11 6 357 351 342 332 327 324 325 328 323 330 326 323 322 319 312 307 299 294 285
199 195 200 186 186 188 179 165 143 141 146 144 142 143 139 138 130 127 127 126 130 128 127 126 128 134 136 134 130 126 121 120 119 113 109 106 103 109 113 114 103 92 82 89 78 82 86 80 75 72 76 66 45 42 43 44 45 47 44 37 37 27 23 20 7 2 352 341 333 329 330 330 329 326 325 331 332 329 323 319 313 308 303 291 282
207 199 193 179 149 145 153 136 137 137 140 143 143 140 138 137 135 132 128 131 132 132 133 131 129 132 135 136 135 128 125 124 125 118 113 116 118 114 108 115 104 98 100 91 93 83 76 77 71 67 72 69 51 37 41 41 40 41 43 31 31 25 15 18 360 343 338 336 329 336 332 328 326 320 325 333 333 333 319 315 312 310 310 308 304
152 99 110 129 134 124 135 143 139 141 143 142 143 141 143 141 138 134 129 128 128 125 122 121 123 128 132 133 135 131 128 128 126 123 121 116 107 98 107 110 116 120 105 103 103 89 73 71 73 73 66 71 52 27 41 39 39 35 36 31 19 18 4 3 354 342 340 332 326 329 328 323 320 316 330 333 334 332 321 319 319 318 317 317 313
159 156 147 145 148 146 142 138 140 145 150 144 142 141 141 141 140 135 129 130 133 133 135 136 136 137 135 134 134 130 128 128 123 121 122 122 121 122 121 107 105 105 103 102 92 94 90 74 70 72 61 61 44 29 38 40 36 31 33 30 20 8 2 2 350 341 338 330 324 318 328 329 327 329 332 334 335 334 325 322 321 319 317 315 314
125 129 140 138 134 132 142 149 157 156 148 147 144 143 145 148 147 140 139 144 149 147 140 134 136 135 133 125 127 124 124 127 126 123 118 119 125 115 115 113 99 98 103 97 95 95 94 81 67 55 51 48 42 21 30 39 32 28 27 29 13 3 3 353 347 339 332 329 322 316 320 321 330 333 334 335 335 335 331 325 325 320 313 310 311
141 140 140 141 153 156 160 161 156 152 152 153 149 146 152 156 151 147 154 156 148 141 138 139 134 130 127 125 121 129 128 122 125 126 122 109 107 115 114 110 112 105 103 99 98 99 89 81 62 53 47 36 35 22 18 34 28 27 23 24 7 6 356 350 336 331 330 327 321 316 312 315 329 333 335 336 338 338 337 335 323 306 309 314 321
125 140 142 139 143 144 140 146 156 157 156 155 153 151 154 158 157 160 157 142 138 138 136 135 137 132 129 124 122 114 113 124 125 121 115 105 95 99 108 115 114 114 110 104 100 93 91 86 77 58 42 32 15 12 40 23 27 23 21 17 17 1 357 345 330 324 322 320 324 319 320 321 329 334 337 340 342 342 343 339 330 332 330 330 328
150 155 170 154 152 161 165 159 158 159 160 160 153 153 159 163 164 158 142 140 138 136 136 132 128 126 123 123 121 126 127 124 122 120 120 116 118 114 112 114 118 113 108 104 96 97 99 96 86 58 38 18 13 356 35 33 24 22 19 15 11 5 358 353 337 331 336 329 321 320 314 327 335 339 343 345 347 347 346 342 341 339 338 334 328
158 157 158 161 149 149 148 151 156 158 162 164 161 159 164 164 160 135 131 126 124 123 122 121 122 122 124 123 125 119 116 118 125 128 123 122 122 119 111 114 118 118 118 108 102 104 103 102 98 71 24 7 354 354 17 33 24 19 15 12 7 4 1 359 354 338 334 327 326 327 330 335 340 345 349 349 348 349 347 345 343 343 344 340 333
162 160 156 151 155 151 142 141 151 157 159 162 168 158 157 155 144 136 138 138 134 133 133 133 137 138 135 135 123 121 121 122 133 139 132 129 126 130 117 116 119 113 115 114 116 115 116 122 117 109 73 350 333 330 306 24 25 18 14 11 8 4 5 3 0 341 333 332 334 335 338 342 346 349 350 348 349 351 350 349 349 350 348 343 342
141 146 158 144 130 134 144 147 148 156 153 157 157 163 162 163 148 150 146 143 142 141 142 144 144 143 142 139 127 119 111 115 121 120 124 129 137 140 128 130 122 115 115 120 128 129 130 132 131 147 150 126 331 289 11 39 8 19 12 13 9 7 6 5 2 346 344 344 343 344 345 348 352 350 350 355 358 350 349 350 351 350 346 346 342
169 166 145 145 149 153 162 163 165 173 166 164 158 160 142 139 150 145 143 143 143 142 140 142 141 140 141 145 142 141 137 129 123 119 112 123 128 127 127 126 128 127 127 128 136 142 143 145 144 151 144 132 52 21 58 20 335 8 7 12 6 4 3 3 356 346 353 353 350 351 350 351 349 351 354 356 353 350 347 349 349 348 349 349 345
166 159 162 152 165 167 167 169 171 170 160 150 143 136 133 139 140 144 142 141 145 150 149 152 153 153 154 157 152 148 143 137 138 140 136 127 107 111 121 132 144 149 141 148 147 153 150 151 150 142 137 142 98 72 50 25 352 22 16 19 8 359 2 2 357 356 5 355 351 347 348 348 343 348 350 354 355 356 349 347 344 341 345 341 340
166 175 172 174 170 170 171 170 167 158 150 146 143 140 145 151 154 153 155 151 152 151 146 147 149 149 155 157 153 152 147 140 132 116 84 92 122 120 122 125 161 151 148 147 146 142 147 146 137 140 149 152 123 116 30 40 41 36 32 23 7 359 7 13 5 4 6 357 349 350 354 356 357 352 348 348 346 348 348 349 343 340 339 338 339
166 155 171 171 179 173 170 171 160 153 152 149 151 155 161 163 161 163 161 157 152 147 148 155 158 157 152 148 147 141 142 141 138 132 124 97 106 129 146 143 174 176 162 149 146 145 148 144 131 157 151 135 148 95 62 57 50 44 38 32 32 31 27 24 15 17 13 12 359 2 358 356 352 350 349 349 347 345 341 343 344 342 337 334 337
162 161 179 181 176 170 165 166 162 158 160 163 164 169 168 173 174 174 171 163 155 151 154 155 160 166 161 155 149 145 144 136 135 135 134 133 131 126 134 139 137 133 130 127 123 127 129 132 120 98 98 108 90 84 81 68 59 52 44 40 43 42 33 31 25 39 13 25 12 6 358 358 354 349 345 341 341 341 342 338 336 333 329 335 336